Regional Weather Roundup
Issued by NWS Portland, ME

Current Version | Previous Version | Text Only | Print | Product List | Glossary Off
Versions: 1 2 3 4 5 6 7 8 9 10 11 12 13 14 15 16 17 18 19 20 21 22 23 24 25 26 27 28 29 30 31 32 33 34 35 36 37 38 39 40 41 42 43 44 45 46 47 48 49 50
000 ASUS41 KGYX 250705 RWRGYX WEATHER ROUNDUP FOR MAINE AND NEW HAMPSHIRE NATIONAL WEATHER SERVICE GRAY ME 200 AM EST SAT NOV 25 2017 MEZ002-005-006-010-012-015-018-020-021-024-026-027-029-250800- MAINE CITY SKY/WX TMP DP RH WIND PRES REMARKS PORTLAND CLEAR 39 27 62 S7 29.84F SANFORD N/A 33 27 78 SW3 29.85S BAR HARBOR CLEAR 45 39 79 SW16G23 29.85S WISCASSET CLEAR 41 34 76 SW8 29.85S ROCKLAND CLEAR 45 38 76 SW7 29.85S FRYEBURG CLEAR 27 26 96 CALM 29.79S LEWISTONAUBURN CLEAR 33 28 81 S8 29.80F AUGUSTA CLEAR 38 29 70 S9 29.80F WATERVILLE CLEAR 35 31 85 S6 29.76S BANGOR CLEAR 39 34 82 S6 29.81F GREENVILLE NOT AVBL MILLINOCKET CLEAR 33 31 92 S6 29.78F HOULTON CLOUDY 37 33 85 S8 29.75F PRESQUE ISLE CLOUDY 37 31 78 S13 29.71F FRENCHVILLE CLOUDY 33 29 85 S12G24 29.65F CARIBOU LGT RAIN 37 31 78 S8 29.69F $$ NHZ002-005-008-009-011-012-014-250800- NEW HAMPSHIRE CITY SKY/WX TMP DP RH WIND PRES REMARKS PORTSMOUTH CLEAR 35 28 74 S7 29.84F ROCHESTER CLEAR 32 27 81 CALM 29.84S NASHUA CLEAR 27 26 96 CALM 29.86S MANCHESTER CLEAR 33 27 78 CALM 29.83F CONCORD CLEAR 34 27 75 S7 29.83F LACONIA CLEAR 27 26 96 NW5 29.82S PLYMOUTH FAIR 24 24 98 CALM 29.82S BERLIN CLEAR 22 20 92 CALM 29.73F WHITEFIELD CLEAR 21 20 96 NW3 29.75R JAFFREY CLEAR 36 27 69 S6 29.82F KEENE CLOUDY 25 22 88 CALM 29.85S LEBANON PTCLDY 31 27 85 CALM 29.79R MT WASHINGTON PTCLDY 34 28 80 SW51G58 N/A WCI 17 $$ VTZ005-007-008-250800- VERMONT CITY SKY/WX TMP DP RH WIND PRES REMARKS ST JOHNSBURY N/A 30 27 88 MISG 29.72F MONTPELIER CLOUDY 35 27 72 S13 29.73F BURLINGTON CLEAR 45 22 40 S15G24 29.68R $$ MAZ007-012-024-CTZ003-RIZ002-NYZ038-NYZ072-250800- SOUTHERN NEW ENGLAND AND NY CITY SKY/WX TMP DP RH WIND PRES REMARKS BOSTON CLEAR 39 34 82 SW6 29.89S WORCESTER CLEAR 39 27 62 SW17 29.84S NANTUCKET CLEAR 49 45 86 SW10 29.93F PROVIDENCE CLEAR 36 35 96 S6 29.90F HARTFORD CLEAR 34 31 88 S8 29.88F ALBANY MOCLDY 42 22 44 S9 29.80F NEW YORK CITY CLEAR 44 31 60 SW7 29.90F $$ ANZ081-ANZ082-ANZ150-NHZ014-MEZ023>029-250800- COASTAL MARINE OBSERVATIONS STATION/POSITION TIME TEMP WIND PRES WAVE AIR SEA DIR/SP/G HT/PER (UTC) (F) (DEG/KT/KT) (MB) (FT/S) MOUNT DESERT ROC 0600 48 200/ 26/ 28 1011.6F MATINICUS ROCK 0600 48 220/ 30/ 31 1010.7F ISLE OF SHOALS 0600 43 210/ 22/ 24 1010.9F JEFFREYS LEDGE 0636 49 N/A 5/ 5 GEORGES BANK BUO 0550 51 53 1015.2 5/ 9 $$ .............KEY.............. WCI - WIND CHILL TC - TEMPERATURE IN CELSIUS VSB - VISIBILITY IN MILES HX - HEAT INDEX FAIR- INDICATES FEW OR NO CLOUDS BELOW 12,000 FT, WITH NO SIGNIFICANT WEATHER AND/OR OBSTRUCTIONS TO VISIBILITY.

USA.gov is the U.S. government's official web portal to all federal, state and local government web resources and services.